Regional Weather Roundup
Issued by NWS

Home | Current Version | Previous Version | Graphics & Text | Print | Product List | Glossary On
Versions: 1 2 3 4 5 6 7 8 9 10 11 12 13 14 15 16 17 18 19 20 21 22 23 24 25 26 27 28 29 30 31 32 33 34 35 36 37 38 39 40 41 42 43 44 45 46 47 48 49 50
273
ASUS45 KSLC 140410
RWRUT

UTAH REGIONAL WEATHER ROUNDUP
NATIONAL WEATHER SERVICE SALT LAKE CITY UT
900 PM MST SAT FEB 13 2016

UTZ001>011-023>025-140500-

NORTHERN UTAH

CITY           SKY/WX    TMP DP  RH WIND       PRES   REMARKS
BRIGHAM CITY   CLOUDY    28  26  94 CALM      30.34S VSB 1/4
HILL AFB       FOG       27  27  99 SE1       30.32R VSB 1/4
LOGAN          FOG       17  17 100 NW3       30.30F VSB<1/4
OGDEN          FOG       27  27 100 CALM      30.33R VSB 1/4
PROVO AIRPORT  FOG       18  12  79 CALM      30.33R VSB 1
SALT LAKE CITY FOG       29  28  96 CALM      30.34R VSB 1/8
VERNAL         CLOUDY    23  18  81 N3        30.20R HAZE
WENDOVER       CLEAR     30  27  86 CALM      30.34S
WEST JORDAN    CLOUDY    28  28 100 CALM      30.33R VSB 1/4

$$

UTZ012>022-026-027-140500-

SOUTHERN/CENTRAL UTAH

CITY           SKY/WX    TMP DP  RH WIND       PRES   REMARKS
BLANDING       CLOUDY    39  27  60 N7        30.27S WCI  34
BRYCE CANYON   PTCLDY    27  19  72 CALM      30.29S
CEDAR CITY     PTCLDY    32  24  72 NE9       30.25R WCI  24
DELTA          MOCLDY    18  17  95 CALM      30.32S
HANKSVILLE     PTCLDY    34  32  93 CALM      30.23R
MILFORD        MOCLDY    13  11  92 N9        30.30R FOG     WCI   1
MOAB/CYNLANDS  CLEAR     37  33  85 W3        30.20R
PRICE          CLEAR     37  21  52 E10       30.22R WCI  30
ST GEORGE      CLEAR     52  27  37 CALM      30.15S
KANAB          MOCLDY    54  21  28 N9        30.21F

$$

REGIONAL REPORTS     COLORADO/ARIZONA

CITY           SKY/WX    TMP DP  RH WIND       PRES   REMARKS
CRAIG, CO      CLOUDY    11   8  88 W6        30.24R WCI   1
GRAND JUNCTION CLEAR     31  27  85 NE7       30.21R WCI  24
RIFLE          CLEAR     31  23  72 E5        30.22R WCI  26
MONTROSE       CLOUDY    35  29  78 NE6       30.24R WCI  30
CORTEZ         CLOUDY    38  27  64 NE9       30.21S WCI  31
PAGE, AZ       MOCLDY    50  32  50 CALM      30.16S
GRAND CANYON   CLEAR     31  21  66 CALM      30.24F
KINGMAN        CLEAR     49  19  30 E10       30.14S
FLAGSTAFF      CLEAR     34  19  54 CALM      30.26R

$$

REGIONAL REPORTS    NEVADA/IDAHO/WYOMING

CITY           SKY/WX    TMP DP  RH WIND       PRES   REMARKS
LAS VEGAS, NV  CLEAR     62  23  22 S6        30.06S
ELY            PTCLDY    23  17  78 S8        30.32R WCI  14
ELKO           CLOUDY    31  26  82 CALM      30.31R
POCATELLO, ID  CLOUDY    37  30  75 S12       30.26S WCI  29
BURLEY         CLOUDY    38  29  70 SW12      30.25R WCI  30
EVANSTON, WY   CLOUDY    29  21  72 SW14      30.26S WCI  18
ROCK SPRINGS   CLEAR     33  17  51 W22G31    30.17F WCI  21

$$




USA.gov is the U.S. government's official web portal to all federal, state and local government web resources and services.